This demonstration page uses our WeatherBlox Daily Observations layout. Learn more.

Left ArrowRight Arrow

39.08367, -84.50855

Hourly Observations for April 23, 2020

Temp ( °F °C ) Dew Point ( °F °C ) Humidity (%) Winds ( mph kmh ) Pressure ( in mb ) Visibility ( mi km ) Precip ( " mm )
12:53 am 00:53 Clear 50 10 45 7.2 83 83 Calm 29.90 1013 10 16 0.00 0.00
1:53 am 01:53 Clear 49 9.4 45 7.2 86 86 Calm 29.90 1012 10 16 0.00 0.00
2:53 am 02:53 Clear 51 10.6 45 7.2 80 80 Calm 29.86 1011 10 16 0.00 0.00
3:53 am 03:53 Clear 50 10 45 7.2 83 83 Calm 29.83 1010 10 16 0.00 0.00
4:53 am 04:53 Clear 51 10.6 45 7.2 80 80 Calm 29.84 1011 10 16 0.00 0.00
5:53 am 05:53 Mostly Clear 49 9.4 46 7.8 90 90 SSW 3 6 29.84 1011 10 16 0.00 0.00
6:53 am 06:53 Mostly Cloudy with Light Rain 50 10 47 8.3 89 89 SSW 6 9 29.85 1011 10 16 0.00 0.00
7:53 am 07:53 Cloudy with Light Rain 51 10.6 48 8.9 89 89 Calm 29.83 1010 10 16 0.00 0.00
8:53 am 08:53 Cloudy 54 12.2 48 8.9 80 80 S 7 11 29.82 1010 10 16 0.00 0.00
9:53 am 09:53 Cloudy with Light Rain 53 11.7 50 10 89 89 undefined N/A 29.82 1010 4 6 0.04 1.02
10:53 am 10:53 Cloudy with Light Rain 53 11.7 51 10.6 93 93 E 3 6 29.80 1009 6 10 0.07 1.78
11:00 am 11:00 Cloudy with Light Rain 54 12.2 51 10.6 90 90 ENE 3 6 29.80 1009 7 11 0.01 0.25
11:50 am 11:50 Cloudy with Light Rain 55 13 52 11 88 88 E 5 7 29.78 1009 10 16 0.04 1.02
11:53 am 11:53 Cloudy with Light Rain 55 12.8 52 11.1 90 90 E 7 11 29.78 1008 10 16 0.04 1.02
12:36 pm 12:36 Cloudy with Light Rain 54 12.2 53 11.7 97 97 Calm 29.77 1008 2 3 0.02 0.51
12:50 pm 12:50 Cloudy with Light Rain 54 12 54 12 100 100 E 3 6 29.76 1008 4 6 0.03 0.76
12:53 pm 12:53 Cloudy with Light Rain 55 12.8 53 11.7 93 93 Calm 29.76 1008 4 6 0.04 1.02
1:40 pm 13:40 Cloudy with Light Rain 55 12.8 54 12.2 96 96 Calm 29.73 1007 2 3 0.04 1.02
1:50 pm 13:50 Cloudy with Light Rain 55 13 54 12 94 94 ESE 3 6 29.73 1007 2 3 0.04 1.02
1:53 pm 13:53 Cloudy with Light Rain 55 12.8 53 11.7 93 93 ESE 5 7 29.72 1007 2 3 0.04 1.02
2:53 pm 14:53 Cloudy with Rain 55 12.8 53 11.7 93 93 SE 3 6 29.70 1006 3 4 0.06 1.52
3:53 pm 15:53 Cloudy with Rain 55 12.8 54 12.2 96 96 Calm 29.68 1005 3 4 0.15 3.81
4:53 pm 16:53 Cloudy with Light Rain 56 13.3 54 12.2 93 93 E 6 9 29.65 1004 4 6 0.00 0.00
5:53 pm 17:53 Cloudy with Mist and Fog 56 13.3 53 11.7 90 90 ESE 7 11 29.63 1003 6 10 0.00 0.00
6:53 pm 18:53 Cloudy with Light Rain 56 13.3 53 11.7 90 90 NE 7 11 29.62 1003 6 10 0.01 0.25
7:53 pm 19:53 Cloudy 56 13.3 54 12.2 93 93 ENE 5 7 29.61 1003 10 16 0.00 0.00
8:53 pm 20:53 Cloudy 55 12.8 54 12.2 96 96 NNE 5 7 29.60 1002 10 16 0.00 0.00
9:53 pm 21:53 Cloudy 55 12.8 54 12.2 96 96 NE 3 6 29.62 1003 10 16 0.00 0.00
10:53 pm 22:53 Cloudy 55 12.8 54 12.2 96 96 NNE 3 6 29.63 1003 10 16 0.00 0.00
11:06 pm 23:06 Cloudy 55 12.8 54 12.2 96 96 NNE 3 6 29.63 1003 10 16 0.00 0.00
11:40 pm 23:40 Cloudy 55 12.8 54 12.2 96 96 N 5 7 29.63 1003 10 16 0.00 0.00
11:53 pm 23:53 Cloudy 55 12.8 53 11.7 93 93 NNE 5 7 29.62 1003 10 16 0.00 0.00

Powered by AerisWeather